Year,Month,Day,Hour,Minute,Value (Times are PST for temperature in C)
2018,11,16,00,00,12.50
2018,11,16,00,01,12.50
2018,11,16,00,02,12.40
2018,11,16,00,03,12.40
2018,11,16,00,04,12.30
2018,11,16,00,05,12.30
2018,11,16,00,06,12.30
2018,11,16,00,07,12.20
2018,11,16,00,08,12.20
2018,11,16,00,09,12.20
2018,11,16,00,10,12.20
2018,11,16,00,11,12.20
2018,11,16,00,12,12.10
2018,11,16,00,13,12.10
2018,11,16,00,14,12.10
2018,11,16,00,15,12.10
2018,11,16,00,16,12.00
2018,11,16,00,17,12.00
2018,11,16,00,18,12.00
2018,11,16,00,19,12.00
2018,11,16,00,20,11.90
2018,11,16,00,21,11.90
2018,11,16,00,22,11.90
2018,11,16,00,23,11.90
2018,11,16,00,24,11.90
2018,11,16,00,25,11.80
2018,11,16,00,26,11.80
2018,11,16,00,27,11.80
2018,11,16,00,28,11.80
2018,11,16,00,29,11.80
2018,11,16,00,30,11.80
2018,11,16,00,31,11.70
2018,11,16,00,32,11.70
2018,11,16,00,33,11.70
2018,11,16,00,34,11.70
2018,11,16,00,35,11.70
2018,11,16,00,36,11.70
2018,11,16,00,37,11.70
2018,11,16,00,38,11.60
2018,11,16,00,39,11.60
2018,11,16,00,40,11.60
2018,11,16,00,41,11.60
2018,11,16,00,42,11.60
2018,11,16,00,43,11.60
2018,11,16,00,44,11.60
2018,11,16,00,45,11.50
2018,11,16,00,46,11.50
2018,11,16,00,47,11.50
2018,11,16,00,48,11.50
2018,11,16,00,49,11.50
2018,11,16,00,50,11.50
2018,11,16,00,51,11.40
2018,11,16,00,52,11.40
2018,11,16,00,53,11.40
2018,11,16,00,54,11.40
2018,11,16,00,55,11.40
2018,11,16,00,56,11.30
2018,11,16,00,57,11.30
2018,11,16,00,58,11.30
2018,11,16,00,59,11.30
2018,11,16,01,00,11.30
2018,11,16,01,01,11.20
2018,11,16,01,02,11.20
2018,11,16,01,03,11.20
2018,11,16,01,04,11.20
2018,11,16,01,05,11.20
2018,11,16,01,06,11.20
2018,11,16,01,07,11.10
2018,11,16,01,08,11.10
2018,11,16,01,09,11.10
2018,11,16,01,10,11.10
2018,11,16,01,11,11.10
2018,11,16,01,12,11.10
2018,11,16,01,13,11.10
2018,11,16,01,14,11.10
2018,11,16,01,15,11.10
2018,11,16,01,16,11.00
2018,11,16,01,17,11.00
2018,11,16,01,18,11.00
2018,11,16,01,19,11.00
2018,11,16,01,20,11.00
2018,11,16,01,21,11.00
2018,11,16,01,22,11.00
2018,11,16,01,23,11.00
2018,11,16,01,24,11.00
2018,11,16,01,25,10.90
2018,11,16,01,26,10.90
2018,11,16,01,27,10.90
2018,11,16,01,28,10.90
2018,11,16,01,29,10.90
2018,11,16,01,30,10.90
2018,11,16,01,31,10.90
2018,11,16,01,32,10.90
2018,11,16,01,33,10.90
2018,11,16,01,34,10.90
2018,11,16,01,35,10.90
2018,11,16,01,36,10.90
2018,11,16,01,37,10.90
2018,11,16,01,38,10.90
2018,11,16,01,39,10.90
2018,11,16,01,40,10.90
2018,11,16,01,41,10.90
2018,11,16,01,42,10.90
2018,11,16,01,43,10.90
2018,11,16,01,44,10.80
2018,11,16,01,45,10.80
2018,11,16,01,46,10.80
2018,11,16,01,47,10.80
2018,11,16,01,48,10.80
2018,11,16,01,49,10.80
2018,11,16,01,50,10.80
2018,11,16,01,51,10.80
2018,11,16,01,52,10.80
2018,11,16,01,53,10.80
2018,11,16,01,54,10.80
2018,11,16,01,55,10.80
2018,11,16,01,56,10.80
2018,11,16,01,57,10.80
2018,11,16,01,58,10.80
2018,11,16,01,59,10.80
2018,11,16,02,00,10.80
2018,11,16,02,01,10.80
2018,11,16,02,02,10.70
2018,11,16,02,03,10.70
2018,11,16,02,04,10.70
2018,11,16,02,05,10.70
2018,11,16,02,06,10.70
2018,11,16,02,07,10.70
2018,11,16,02,08,10.70
2018,11,16,02,09,10.70
2018,11,16,02,10,10.70
2018,11,16,02,11,10.70
2018,11,16,02,12,10.70
2018,11,16,02,13,10.70
2018,11,16,02,14,10.70
2018,11,16,02,15,10.70
2018,11,16,02,16,10.70
2018,11,16,02,17,10.70
2018,11,16,02,18,10.70
2018,11,16,02,19,10.70
2018,11,16,02,20,10.70
2018,11,16,02,21,10.70
2018,11,16,02,22,10.70
2018,11,16,02,23,10.70
2018,11,16,02,24,10.70
2018,11,16,02,25,10.70
2018,11,16,02,26,10.70
2018,11,16,02,27,10.70
2018,11,16,02,28,10.70
2018,11,16,02,29,10.70
2018,11,16,02,30,10.70
2018,11,16,02,31,10.70
2018,11,16,02,32,10.70
2018,11,16,02,33,10.70
2018,11,16,02,34,10.70
2018,11,16,02,35,10.70
2018,11,16,02,36,10.70
2018,11,16,02,37,10.70
2018,11,16,08,04,10.20
2018,11,16,08,05,10.20
2018,11,16,08,06,10.20
2018,11,16,08,07,10.20
2018,11,16,08,08,10.20
2018,11,16,08,09,10.10
2018,11,16,08,10,10.10
2018,11,16,08,11,10.10
2018,11,16,08,12,10.10
2018,11,16,08,13,10.10
2018,11,16,08,14,10.10
2018,11,16,08,15,10.10
2018,11,16,08,16,10.10
2018,11,16,08,17,10.10
2018,11,16,08,18,10.10
2018,11,16,08,19,10.00
2018,11,16,08,20,10.00
2018,11,16,08,21,10.00
2018,11,16,08,22,10.00
2018,11,16,08,23,10.00
2018,11,16,08,24,10.00
2018,11,16,08,25,10.00
2018,11,16,08,26,10.00
2018,11,16,08,27,10.00
2018,11,16,08,28,10.00
2018,11,16,08,29,10.00
2018,11,16,08,30,10.00
2018,11,16,08,31,10.00
2018,11,16,08,32,10.00
2018,11,16,08,33,10.00
2018,11,16,08,34,10.00
2018,11,16,08,35,10.00
2018,11,16,08,36,10.00
2018,11,16,08,37,10.00
2018,11,16,08,38,10.00
2018,11,16,08,39,10.00
2018,11,16,08,40,10.00
2018,11,16,08,41,10.00
2018,11,16,08,42,10.00
2018,11,16,08,43,10.00
2018,11,16,08,44,10.00
2018,11,16,08,45,10.00
2018,11,16,08,46,10.00
2018,11,16,08,47,10.00
2018,11,16,08,48,10.00
2018,11,16,08,49,10.00
2018,11,16,08,50,10.00
2018,11,16,08,51,10.10
2018,11,16,08,52,10.10
2018,11,16,08,53,10.10
2018,11,16,08,54,10.10
2018,11,16,08,55,10.10
2018,11,16,08,56,10.10
2018,11,16,08,57,10.10
2018,11,16,08,58,10.10
2018,11,16,08,59,10.10
2018,11,16,09,00,10.20
2018,11,16,09,01,10.20
2018,11,16,09,02,10.20
2018,11,16,09,03,10.20
2018,11,16,09,04,10.20
2018,11,16,09,05,10.20
2018,11,16,09,06,10.20
2018,11,16,09,07,10.20
2018,11,16,09,08,10.20
2018,11,16,09,09,10.20
2018,11,16,09,10,10.30
2018,11,16,09,11,10.30
2018,11,16,09,12,10.30
2018,11,16,09,13,10.30
2018,11,16,09,14,10.30
2018,11,16,09,15,10.30
2018,11,16,09,16,10.30
2018,11,16,09,17,10.30
2018,11,16,09,18,10.30
2018,11,16,09,19,10.40
2018,11,16,09,20,10.40
2018,11,16,09,21,10.40
2018,11,16,09,22,10.40
2018,11,16,09,23,10.40
2018,11,16,09,24,10.40
2018,11,16,09,25,10.40
2018,11,16,09,26,10.40
2018,11,16,09,27,10.40
2018,11,16,09,28,10.50
2018,11,16,09,29,10.50
2018,11,16,09,30,10.50
2018,11,16,09,31,10.50
2018,11,16,09,32,10.60
2018,11,16,09,33,10.60
2018,11,16,09,34,10.60
2018,11,16,09,35,10.60
2018,11,16,09,36,10.60
2018,11,16,09,37,10.60
2018,11,16,09,38,10.60
2018,11,16,09,39,10.70
2018,11,16,09,40,10.70
2018,11,16,09,41,10.70
2018,11,16,09,42,10.70
2018,11,16,09,43,10.70
2018,11,16,09,44,10.70
2018,11,16,09,45,10.70
2018,11,16,09,46,10.80
2018,11,16,09,47,10.80
2018,11,16,09,48,10.80
2018,11,16,09,49,10.80
2018,11,16,09,50,10.80
2018,11,16,09,51,10.80
2018,11,16,09,52,10.80
2018,11,16,09,53,10.90
2018,11,16,09,54,10.90
2018,11,16,09,55,10.90
2018,11,16,09,56,10.90
2018,11,16,09,57,10.90
2018,11,16,09,58,10.90
2018,11,16,09,59,11.00
2018,11,16,10,00,11.00
2018,11,16,10,01,11.00
2018,11,16,10,02,11.00
2018,11,16,10,03,11.00
2018,11,16,10,04,11.00
2018,11,16,10,05,11.00
2018,11,16,10,06,11.00
2018,11,16,10,07,11.00
2018,11,16,10,08,11.10
2018,11,16,10,09,11.10
2018,11,16,10,10,11.10
2018,11,16,10,11,11.10
2018,11,16,10,12,11.10
2018,11,16,10,13,11.20
2018,11,16,10,14,11.20
2018,11,16,10,15,11.20
2018,11,16,10,16,11.20
2018,11,16,10,17,11.20
2018,11,16,10,18,11.30
2018,11,16,10,19,11.30
2018,11,16,10,20,11.30
2018,11,16,10,21,11.30
2018,11,16,10,22,11.40
2018,11,16,10,23,11.40
2018,11,16,10,24,11.40
2018,11,16,10,25,11.40
2018,11,16,10,26,11.40
2018,11,16,10,27,11.40
2018,11,16,10,28,11.40
2018,11,16,10,29,11.40
2018,11,16,10,30,11.40
2018,11,16,10,31,11.40
2018,11,16,10,32,11.40
2018,11,16,10,33,11.40
2018,11,16,10,34,11.40
2018,11,16,10,35,11.40
2018,11,16,10,36,11.40
2018,11,16,10,37,11.40
2018,11,16,10,38,11.40
2018,11,16,10,39,11.50
2018,11,16,10,40,11.50
2018,11,16,10,41,11.50
2018,11,16,10,42,11.50
2018,11,16,10,43,11.50
2018,11,16,10,44,11.60
2018,11,16,10,45,11.60
2018,11,16,10,46,11.60
2018,11,16,10,47,11.60
2018,11,16,10,48,11.70
2018,11,16,10,49,11.70
2018,11,16,10,50,11.70
2018,11,16,10,51,11.70
2018,11,16,10,52,11.70
2018,11,16,10,53,11.70
2018,11,16,10,54,11.80
2018,11,16,10,55,11.80
2018,11,16,10,56,11.80
2018,11,16,10,57,11.80
2018,11,16,10,58,11.90
2018,11,16,10,59,11.90
2018,11,16,11,00,11.90
2018,11,16,11,01,11.90
2018,11,16,11,02,11.90
2018,11,16,11,03,11.90
2018,11,16,11,04,11.90
2018,11,16,11,05,12.00
2018,11,16,11,06,12.00
2018,11,16,11,07,12.00
2018,11,16,11,08,12.00
2018,11,16,11,09,12.10
2018,11,16,11,10,12.00
2018,11,16,11,11,12.00
2018,11,16,11,12,12.00
2018,11,16,11,13,12.00
2018,11,16,11,14,12.00
2018,11,16,11,15,12.00
2018,11,16,11,16,12.00
2018,11,16,11,17,12.00
2018,11,16,11,18,12.00
2018,11,16,11,19,12.00
2018,11,16,11,20,12.00
2018,11,16,11,21,12.00
2018,11,16,11,22,12.00
2018,11,16,11,23,12.00
2018,11,16,11,24,12.00
2018,11,16,11,25,12.00
2018,11,16,11,26,11.90
2018,11,16,11,27,12.00
2018,11,16,11,28,12.00
2018,11,16,11,29,12.00
2018,11,16,11,30,12.00
2018,11,16,11,31,12.00
2018,11,16,11,32,12.00
2018,11,16,11,33,11.90
2018,11,16,11,34,11.90
2018,11,16,11,35,11.90
2018,11,16,11,36,12.00
2018,11,16,11,37,12.00
2018,11,16,11,38,12.00
2018,11,16,11,39,12.00
2018,11,16,11,40,12.00
2018,11,16,11,41,12.10
2018,11,16,11,42,12.10
2018,11,16,11,43,12.10
2018,11,16,11,44,12.10
2018,11,16,11,45,12.10
2018,11,16,11,46,12.20
2018,11,16,11,47,12.20
2018,11,16,11,48,12.20
2018,11,16,11,49,12.20
2018,11,16,11,50,12.20
2018,11,16,11,51,12.20
2018,11,16,11,52,12.20
2018,11,16,11,53,12.30
2018,11,16,11,54,12.30
2018,11,16,11,55,12.30
2018,11,16,11,56,12.30
2018,11,16,11,57,12.30
2018,11,16,11,58,12.30
2018,11,16,11,59,12.30
2018,11,16,12,00,12.30
2018,11,16,12,01,12.30
2018,11,16,12,02,12.30
2018,11,16,12,03,12.30
2018,11,16,12,04,12.30
2018,11,16,12,05,12.30
2018,11,16,12,06,12.30
2018,11,16,12,07,12.30
2018,11,16,12,08,12.30
2018,11,16,12,09,12.30
2018,11,16,12,10,12.30
2018,11,16,12,11,12.30
2018,11,16,12,12,12.30
2018,11,16,12,13,12.30
2018,11,16,12,14,12.30
2018,11,16,12,15,12.30
2018,11,16,12,16,12.30
2018,11,16,12,17,12.30
2018,11,16,12,18,12.20
2018,11,16,12,19,12.20
2018,11,16,12,20,12.20
2018,11,16,12,21,12.20
2018,11,16,12,22,12.20
2018,11,16,12,23,12.20
2018,11,16,12,24,12.20
2018,11,16,12,25,12.20
2018,11,16,12,26,12.20
2018,11,16,12,27,12.20
2018,11,16,12,28,12.20
2018,11,16,12,29,12.20
2018,11,16,12,30,12.20
2018,11,16,12,31,12.20
2018,11,16,12,32,12.20
2018,11,16,12,33,12.20
2018,11,16,12,34,12.20
2018,11,16,12,35,12.20
2018,11,16,12,36,12.20
2018,11,16,12,37,12.20
2018,11,16,12,38,12.30
2018,11,16,12,39,12.30
2018,11,16,12,40,12.30
2018,11,16,12,41,12.30
2018,11,16,12,42,12.30
2018,11,16,12,43,12.30
2018,11,16,12,44,12.30
2018,11,16,12,45,12.30
2018,11,16,12,46,12.30
2018,11,16,12,47,12.30
2018,11,16,12,48,12.30
2018,11,16,12,49,12.30
2018,11,16,12,50,12.30
2018,11,16,12,51,12.30
2018,11,16,12,52,12.30
2018,11,16,12,53,12.30
2018,11,16,12,54,12.30
2018,11,16,12,55,12.30
2018,11,16,12,56,12.30
2018,11,16,12,57,12.30
2018,11,16,12,58,12.30
2018,11,16,12,59,12.30
2018,11,16,13,00,12.30
2018,11,16,13,01,12.30
2018,11,16,13,02,12.30
2018,11,16,13,03,12.30
2018,11,16,13,04,12.40
2018,11,16,13,05,12.40
2018,11,16,13,06,12.40
2018,11,16,13,07,12.40
2018,11,16,13,08,12.40
2018,11,16,13,09,12.30
2018,11,16,13,10,12.30
2018,11,16,13,11,12.30
2018,11,16,13,12,12.30
2018,11,16,13,13,12.30
2018,11,16,13,14,12.30
2018,11,16,13,15,12.30
2018,11,16,13,16,12.30
2018,11,16,13,17,12.30
2018,11,16,13,18,12.30
2018,11,16,13,19,12.30
2018,11,16,13,20,12.30
2018,11,16,13,21,12.30
2018,11,16,13,22,12.30
2018,11,16,13,23,12.30
2018,11,16,13,24,12.40
2018,11,16,13,25,12.40
2018,11,16,13,26,12.40
2018,11,16,13,27,12.40
2018,11,16,13,28,12.30
2018,11,16,13,29,12.30
2018,11,16,13,30,12.30
2018,11,16,13,31,12.30
2018,11,16,13,32,12.30
2018,11,16,13,33,12.30
2018,11,16,13,34,12.30
2018,11,16,13,35,12.40
2018,11,16,13,36,12.40
2018,11,16,13,37,12.40
2018,11,16,13,38,12.40
2018,11,16,13,39,12.40
2018,11,16,13,40,12.40
2018,11,16,13,41,12.40
2018,11,16,13,42,12.40
2018,11,16,13,43,12.40
2018,11,16,13,44,12.40
2018,11,16,13,45,12.40
2018,11,16,13,46,12.50
2018,11,16,13,47,12.50
2018,11,16,13,48,12.40
2018,11,16,13,49,12.40
2018,11,16,13,50,12.40
2018,11,16,13,51,12.40
2018,11,16,13,52,12.40
2018,11,16,13,53,12.40
2018,11,16,13,54,12.40
2018,11,16,13,55,12.40
2018,11,16,13,56,12.40
2018,11,16,13,57,12.50
2018,11,16,13,58,12.50
2018,11,16,13,59,12.50
2018,11,16,14,00,12.50
2018,11,16,14,01,12.50
2018,11,16,14,02,12.60
2018,11,16,14,03,12.60
2018,11,16,14,04,12.60
2018,11,16,14,05,12.60
2018,11,16,14,06,12.60
2018,11,16,14,07,12.60
2018,11,16,14,08,12.60
2018,11,16,14,09,12.60
2018,11,16,14,10,12.60
2018,11,16,14,11,12.60
2018,11,16,14,12,12.60
2018,11,16,14,13,12.60
2018,11,16,14,14,12.50
2018,11,16,14,15,12.50
2018,11,16,14,16,12.50
2018,11,16,14,17,12.50
2018,11,16,14,18,12.60
2018,11,16,14,19,12.60
2018,11,16,14,20,12.60
2018,11,16,14,21,12.60
2018,11,16,14,22,12.60
2018,11,16,14,23,12.60
2018,11,16,14,24,12.60
2018,11,16,14,25,12.60
2018,11,16,14,26,12.70
2018,11,16,14,27,12.70
2018,11,16,14,28,12.70
2018,11,16,14,29,12.60
2018,11,16,14,30,12.60
2018,11,16,14,31,12.60
2018,11,16,14,32,12.60
2018,11,16,14,33,12.60
2018,11,16,14,34,12.50
2018,11,16,14,35,12.50
2018,11,16,14,36,12.50
2018,11,16,14,37,12.50
2018,11,16,14,38,12.50
2018,11,16,14,39,12.50
2018,11,16,14,40,12.60
2018,11,16,14,41,12.60
2018,11,16,14,42,12.60
2018,11,16,14,43,12.70
2018,11,16,14,44,12.70
2018,11,16,14,45,12.70
2018,11,16,14,46,12.70
2018,11,16,14,47,12.70
2018,11,16,14,48,12.70
2018,11,16,14,49,12.70
2018,11,16,14,50,12.70
2018,11,16,14,51,12.70
2018,11,16,14,52,12.70
2018,11,16,14,53,12.70
2018,11,16,14,54,12.70
2018,11,16,14,55,12.70
2018,11,16,14,56,12.70
2018,11,16,14,57,12.70
2018,11,16,14,58,12.70
2018,11,16,14,59,12.70
2018,11,16,15,00,12.70
2018,11,16,15,01,12.70
2018,11,16,15,02,12.80
2018,11,16,15,03,12.80
2018,11,16,15,04,12.80
2018,11,16,15,05,12.80
2018,11,16,15,06,12.80
2018,11,16,15,07,12.80
2018,11,16,15,08,12.80
2018,11,16,15,09,12.80
2018,11,16,15,10,12.80
2018,11,16,15,11,12.70
2018,11,16,15,12,12.70
2018,11,16,15,13,12.70
2018,11,16,15,14,12.70
2018,11,16,15,15,12.70
2018,11,16,15,16,12.70
2018,11,16,15,17,12.70
2018,11,16,15,18,12.70
2018,11,16,15,19,12.70
2018,11,16,15,20,12.70
2018,11,16,15,21,12.70
2018,11,16,15,22,12.70
2018,11,16,15,23,12.70
2018,11,16,15,24,12.70
2018,11,16,15,25,12.70
2018,11,16,15,26,12.70
2018,11,16,15,27,12.70
2018,11,16,15,28,12.70
2018,11,16,15,29,12.70
2018,11,16,15,30,12.60
2018,11,16,15,31,12.60
2018,11,16,15,32,12.60
2018,11,16,15,33,12.60
2018,11,16,15,34,12.60
2018,11,16,15,35,12.60
2018,11,16,15,36,12.60
2018,11,16,15,37,12.60
2018,11,16,15,38,12.60
2018,11,16,15,39,12.60
2018,11,16,15,40,12.60
2018,11,16,15,41,12.60
2018,11,16,15,42,12.60
2018,11,16,15,43,12.60
2018,11,16,15,44,12.60
2018,11,16,15,45,12.50
2018,11,16,15,46,12.50
2018,11,16,15,47,12.50
2018,11,16,15,48,12.50
2018,11,16,15,49,12.40
2018,11,16,15,50,12.40
2018,11,16,15,51,12.40
2018,11,16,15,52,12.40
2018,11,16,15,53,12.40
2018,11,16,15,54,12.40
2018,11,16,15,55,12.30
2018,11,16,15,56,12.30
2018,11,16,15,57,12.30
2018,11,16,15,58,12.30
2018,11,16,15,59,12.30
2018,11,16,16,00,12.30
2018,11,16,16,01,12.30
2018,11,16,16,02,12.30
2018,11,16,16,03,12.20
2018,11,16,16,04,12.20
2018,11,16,16,05,12.20
2018,11,16,16,06,12.20
2018,11,16,16,07,12.20
2018,11,16,16,08,12.10
2018,11,16,16,09,12.10
2018,11,16,16,10,12.10
2018,11,16,16,11,12.10
2018,11,16,16,12,12.10
2018,11,16,16,13,12.10
2018,11,16,16,14,12.00
2018,11,16,16,15,12.00
2018,11,16,16,16,12.00
2018,11,16,16,17,11.90
2018,11,16,16,18,11.90
2018,11,16,16,19,11.90
2018,11,16,16,20,11.80
2018,11,16,16,21,11.80
2018,11,16,16,22,11.80
2018,11,16,16,23,11.70
2018,11,16,16,24,11.70
2018,11,16,16,25,11.70
2018,11,16,16,26,11.70
2018,11,16,16,27,11.70
2018,11,16,16,28,11.60
2018,11,16,16,29,11.60
2018,11,16,16,30,11.60
2018,11,16,16,31,11.60
2018,11,16,16,32,11.60
2018,11,16,16,33,11.60
2018,11,16,16,34,11.60
2018,11,16,16,35,11.60
2018,11,16,16,36,11.50
2018,11,16,16,37,11.50
2018,11,16,16,38,11.50
2018,11,16,16,39,11.50
2018,11,16,16,40,11.50
2018,11,16,16,41,11.50
2018,11,16,16,42,11.50
2018,11,16,16,43,11.50
2018,11,16,16,44,11.40
2018,11,16,16,45,11.40
2018,11,16,16,46,11.40
2018,11,16,16,47,11.40
2018,11,16,16,48,11.40
2018,11,16,16,49,11.40
2018,11,16,16,50,11.30
2018,11,16,16,51,11.30
2018,11,16,16,52,11.30
2018,11,16,16,53,11.30
2018,11,16,16,54,11.30
2018,11,16,16,55,11.30
2018,11,16,16,56,11.30
2018,11,16,16,57,11.30
2018,11,16,16,58,11.30
2018,11,16,16,59,11.20
2018,11,16,17,00,11.20
2018,11,16,17,01,11.20
2018,11,16,17,02,11.20
2018,11,16,17,03,11.20
2018,11,16,17,04,11.20
2018,11,16,17,05,11.20
2018,11,16,17,06,11.20
2018,11,16,17,07,11.20
2018,11,16,17,08,11.20
2018,11,16,17,09,11.20
2018,11,16,17,10,11.20
2018,11,16,17,11,11.20
2018,11,16,17,12,11.20
2018,11,16,17,13,11.20
2018,11,16,17,14,11.20
2018,11,16,17,15,11.20
2018,11,16,17,16,11.20
2018,11,16,17,17,11.20
2018,11,16,17,18,11.10
2018,11,16,17,19,11.10
2018,11,16,17,20,11.00
2018,11,16,17,21,11.00
2018,11,16,17,22,10.90
2018,11,16,17,23,10.80
2018,11,16,17,24,10.80
2018,11,16,17,25,10.70
2018,11,16,17,26,10.70
2018,11,16,17,27,10.70
2018,11,16,17,28,10.60
2018,11,16,17,29,10.60
2018,11,16,17,30,10.50
2018,11,16,17,31,10.50
2018,11,16,17,32,10.40
2018,11,16,17,33,10.40
2018,11,16,17,34,10.30
2018,11,16,17,35,10.30
2018,11,16,17,36,10.30
2018,11,16,17,37,10.30
2018,11,16,17,38,10.20
2018,11,16,17,39,10.20
2018,11,16,17,40,10.20
2018,11,16,17,41,10.10
2018,11,16,17,42,10.10
2018,11,16,17,43,10.10
2018,11,16,17,44,10.10
2018,11,16,17,45,10.00
2018,11,16,17,46,10.00
2018,11,16,17,47,9.90
2018,11,16,17,48,9.90
2018,11,16,17,49,9.90
2018,11,16,17,50,9.90
2018,11,16,17,51,9.90
2018,11,16,17,52,9.90
2018,11,16,17,53,9.90
2018,11,16,17,54,9.80
2018,11,16,17,55,9.80
2018,11,16,17,56,9.80
2018,11,16,17,57,9.80
2018,11,16,17,58,9.80
2018,11,16,17,59,9.80
2018,11,16,18,00,9.80
2018,11,16,18,01,9.70
2018,11,16,18,02,9.70
2018,11,16,18,03,9.70
2018,11,16,18,04,9.70
2018,11,16,18,05,9.60
2018,11,16,18,06,9.60
2018,11,16,18,07,9.60
2018,11,16,18,08,9.50
2018,11,16,18,09,9.50
2018,11,16,18,10,9.40
2018,11,16,18,11,9.40
2018,11,16,18,12,9.40
2018,11,16,18,13,9.40
2018,11,16,18,14,9.30
2018,11,16,18,15,9.30
2018,11,16,18,16,9.30
2018,11,16,18,17,9.30
2018,11,16,18,18,9.30
2018,11,16,18,19,9.20
2018,11,16,18,20,9.20
2018,11,16,18,21,9.20
2018,11,16,18,22,9.20
2018,11,16,18,23,9.20
2018,11,16,18,24,9.20
2018,11,16,18,25,9.20
2018,11,16,18,26,9.20
2018,11,16,18,27,9.20
2018,11,16,18,28,9.10
2018,11,16,18,29,9.10
2018,11,16,18,30,9.10
2018,11,16,18,31,9.10
2018,11,16,18,32,9.00
2018,11,16,18,33,9.00
2018,11,16,18,34,8.90
2018,11,16,18,35,8.90
2018,11,16,18,36,8.90
2018,11,16,18,37,8.80
2018,11,16,18,38,8.80
2018,11,16,18,39,8.80
2018,11,16,18,40,8.80
2018,11,16,18,41,8.80
2018,11,16,18,42,8.70
2018,11,16,18,43,8.70
2018,11,16,18,44,8.70
2018,11,16,18,45,8.70
2018,11,16,18,46,8.70
2018,11,16,18,47,8.60
2018,11,16,18,48,8.60
2018,11,16,18,49,8.60
2018,11,16,18,50,8.60
2018,11,16,18,51,8.60
2018,11,16,18,52,8.50
2018,11,16,18,53,8.50
2018,11,16,18,54,8.50
2018,11,16,18,55,8.50
2018,11,16,18,56,8.40
2018,11,16,18,57,8.40
2018,11,16,18,58,8.40
2018,11,16,18,59,8.40
2018,11,16,19,00,8.40
2018,11,16,19,01,8.30
2018,11,16,19,02,8.30
2018,11,16,19,03,8.30
2018,11,16,19,04,8.30
2018,11,16,19,05,8.30
2018,11,16,19,06,8.30
2018,11,16,19,07,8.30
2018,11,16,19,08,8.30
2018,11,16,19,09,8.30
2018,11,16,19,10,8.20
2018,11,16,19,11,8.20
2018,11,16,19,12,8.20
2018,11,16,19,13,8.20
2018,11,16,19,14,8.20
2018,11,16,19,15,8.10
2018,11,16,19,16,8.10
2018,11,16,19,17,8.10
2018,11,16,19,18,8.10
2018,11,16,19,19,8.10
2018,11,16,19,20,8.10
2018,11,16,19,21,8.10
2018,11,16,19,22,8.10
2018,11,16,19,23,8.10
2018,11,16,19,24,8.10
2018,11,16,19,25,8.20
2018,11,16,19,26,8.20
2018,11,16,19,27,8.20
2018,11,16,19,28,8.20
2018,11,16,19,29,8.20
2018,11,16,19,30,8.20
2018,11,16,19,31,8.20
2018,11,16,19,32,8.30
2018,11,16,19,33,8.30
2018,11,16,19,34,8.30
2018,11,16,19,35,8.30
2018,11,16,19,36,8.30
2018,11,16,19,37,8.30
2018,11,16,19,38,8.30
2018,11,16,19,39,8.30
2018,11,16,19,40,8.30
2018,11,16,19,41,8.40
2018,11,16,19,42,8.40
2018,11,16,19,43,8.40
2018,11,16,19,44,8.50
2018,11,16,19,45,8.50
2018,11,16,19,46,8.60
2018,11,16,19,47,8.60
2018,11,16,19,48,8.60
2018,11,16,19,49,8.60
2018,11,16,19,50,8.60
2018,11,16,19,51,8.70
2018,11,16,19,52,8.70
2018,11,16,19,53,8.70
2018,11,16,19,54,8.70
2018,11,16,19,55,8.70
2018,11,16,19,56,8.70
2018,11,16,19,57,8.70
2018,11,16,19,58,8.70
2018,11,16,19,59,8.80
2018,11,16,20,00,8.80
2018,11,16,20,01,8.80
2018,11,16,20,02,8.80
2018,11,16,20,03,8.80
2018,11,16,20,04,8.90
2018,11,16,20,05,8.90
2018,11,16,20,06,8.90
2018,11,16,20,07,8.90
2018,11,16,20,08,8.90
2018,11,16,20,09,9.00
2018,11,16,20,10,9.00
2018,11,16,20,11,9.10
2018,11,16,20,12,9.10
2018,11,16,20,13,9.10
2018,11,16,20,14,9.10
2018,11,16,20,15,9.10
2018,11,16,20,16,9.20
2018,11,16,20,17,9.20
2018,11,16,20,18,9.20
2018,11,16,20,19,9.20
2018,11,16,20,20,9.20
2018,11,16,20,21,9.20
2018,11,16,20,22,9.20
2018,11,16,20,23,9.20
2018,11,16,20,24,9.20
2018,11,16,20,25,9.20
2018,11,16,20,26,9.20
2018,11,16,20,27,9.20
2018,11,16,20,28,9.20
2018,11,16,20,29,9.20
2018,11,16,20,30,9.20
2018,11,16,20,31,9.20
2018,11,16,20,32,9.20
2018,11,16,20,33,9.20
2018,11,16,20,34,9.20
2018,11,16,20,35,9.20
2018,11,16,20,36,9.30
2018,11,16,20,37,9.30
2018,11,16,20,38,9.30
2018,11,16,20,39,9.30
2018,11,16,20,40,9.30
2018,11,16,20,41,9.30
2018,11,16,20,42,9.30
2018,11,16,20,43,9.30
2018,11,16,20,44,9.30
2018,11,16,20,45,9.30
2018,11,16,20,46,9.30
2018,11,16,20,47,9.30
2018,11,16,20,48,9.30
2018,11,16,20,49,9.30
2018,11,16,20,50,9.30
2018,11,16,20,51,9.30
2018,11,16,20,52,9.30
2018,11,16,20,53,9.30
2018,11,16,20,54,9.30
2018,11,16,20,55,9.30
2018,11,16,20,56,9.30
2018,11,16,20,57,9.30
2018,11,16,20,58,9.30
2018,11,16,20,59,9.30
2018,11,16,21,00,9.20
2018,11,16,21,01,9.20
2018,11,16,21,02,9.20
2018,11,16,21,03,9.20
2018,11,16,21,04,9.20
2018,11,16,21,05,9.10
2018,11,16,21,06,9.10
2018,11,16,21,07,9.10
2018,11,16,21,08,9.00
2018,11,16,21,09,9.00
2018,11,16,21,10,8.90
2018,11,16,21,11,8.90
2018,11,16,21,12,8.90
2018,11,16,21,13,8.80
2018,11,16,21,14,8.80
2018,11,16,21,15,8.80
2018,11,16,21,16,8.80
2018,11,16,21,17,8.70
2018,11,16,21,18,8.70
2018,11,16,21,19,8.70
2018,11,16,21,20,8.70
2018,11,16,21,21,8.60
2018,11,16,21,22,8.60
2018,11,16,21,23,8.60
2018,11,16,21,24,8.60
2018,11,16,21,25,8.60
2018,11,16,21,26,8.50
2018,11,16,21,27,8.50
2018,11,16,21,28,8.50
2018,11,16,21,29,8.40
2018,11,16,21,30,8.40
2018,11,16,21,31,8.40
2018,11,16,21,32,8.40
2018,11,16,21,33,8.40
2018,11,16,21,34,8.40
2018,11,16,21,35,8.40
2018,11,16,21,36,8.40
2018,11,16,21,37,8.40
2018,11,16,21,38,8.40
2018,11,16,21,39,8.40
2018,11,16,21,40,8.40
2018,11,16,21,41,8.40
2018,11,16,21,42,8.40
2018,11,16,21,43,8.40
2018,11,16,21,44,8.50
2018,11,16,21,45,8.50
2018,11,16,21,46,8.50
2018,11,16,21,47,8.60
2018,11,16,21,48,8.60
2018,11,16,21,49,8.60
2018,11,16,21,50,8.60
2018,11,16,21,51,8.60
2018,11,16,21,52,8.70
2018,11,16,21,53,8.70
2018,11,16,21,54,8.70
2018,11,16,21,55,8.70
2018,11,16,21,56,8.80
2018,11,16,21,57,8.80
2018,11,16,21,58,8.80
2018,11,16,21,59,8.80
2018,11,16,22,00,8.80
2018,11,16,22,01,8.80
2018,11,16,22,02,8.80
2018,11,16,22,03,8.80
2018,11,16,22,04,8.80
2018,11,16,22,05,8.80
2018,11,16,22,06,8.80
2018,11,16,22,07,8.80
2018,11,16,22,08,8.80
2018,11,16,22,09,8.90
2018,11,16,22,10,8.90
2018,11,16,22,11,8.90
2018,11,16,22,12,9.00
2018,11,16,22,13,9.00
2018,11,16,22,14,9.00
2018,11,16,22,15,9.00
2018,11,16,22,16,9.00
2018,11,16,22,17,9.00
2018,11,16,22,18,9.00
2018,11,16,22,19,9.00
2018,11,16,22,20,9.00
2018,11,16,22,21,9.00
2018,11,16,22,22,9.00
2018,11,16,22,23,9.00
2018,11,16,22,24,9.00
2018,11,16,22,25,9.00
2018,11,16,22,26,9.00
2018,11,16,22,27,9.00
2018,11,16,22,28,9.00
2018,11,16,22,29,9.00
2018,11,16,22,30,9.00
2018,11,16,22,31,8.90
2018,11,16,22,32,8.90
2018,11,16,22,33,8.90
2018,11,16,22,34,8.90
2018,11,16,22,35,8.90
2018,11,16,22,36,8.90
2018,11,16,22,37,8.90
2018,11,16,22,38,8.90
2018,11,16,22,39,8.90
2018,11,16,22,40,8.90
2018,11,16,22,41,8.90
2018,11,16,22,42,8.90
2018,11,16,22,43,8.90
2018,11,16,22,44,8.90
2018,11,16,22,45,8.90
2018,11,16,22,46,8.90
2018,11,16,22,47,8.90
2018,11,16,22,48,8.90
2018,11,16,22,49,8.90
2018,11,16,22,50,8.80
2018,11,16,22,51,8.80
2018,11,16,22,52,8.80
2018,11,16,22,53,8.80
2018,11,16,22,54,8.80
2018,11,16,22,55,8.70
2018,11,16,22,56,8.70
2018,11,16,22,57,8.70
2018,11,16,22,58,8.70
2018,11,16,22,59,8.70